Orbital Elements at Epoch 2459000.5 (2020-May-31.0) TDB
Reference: JPL 21 (heliocentric ecliptic J2000)
Element | Value | Uncertainty (1-sigma) | Units |
e | .1641957998523738 | 4.107e-08 | |
a | 2.66147919564143 | 1.3354e-08 | au |
q | 2.224475490322633 | 1.1326e-07 | au |
i | 11.06914732851548 | 4.8339e-06 | deg |
node | 242.8935798998969 | 2.3222e-05 | deg |
peri | 187.4309556966733 | 2.8141e-05 | deg |
M | 353.0890097475432 | 1.5905e-05 | deg |
tp | 2459030.945339415852 (2020-Jun-30.44533942) | 7.0167e-05 | TDB |
period | 1585.926443147612 4.34 | 1.1936e-05 3.268e-08 | d yr |
n | .2269966564688225 | 1.7084e-09 | deg/d |
Q | 3.098482900960227 | 1.5547e-08 | au |
|
| | Orbit Determination Parameters
Additional Information
|